Location: Mountain_View
(35.6670°N, 81.4000°W)
Time: 18:20:19
(UTC-04:00)

Amateur Radio Satellites - All Passes

Search period start: 26 June 2017 17:50
Search period end: 27 June 2017 17:50
Location: Mountain_View, 35.6670°N, 81.4000°W

Satellite Date Start Highest point End Downlink Frequencies (MHz)
Time Altitude Azimuth
DOVE 4 26 Jun 17:58:31 18:02:26 43° 73° (ENE) 18:06:29 437.250
NUDT-PHONESAT 26 Jun 18:10:45 18:13:20 18° 70° (ENE) 18:15:56 437.300
HO-68 26 Jun 18:11:09 18:14:10 13° 55° (NE) 18:17:09 435.675
CUTE-I 26 Jun 18:19:08 18:23:54 35° 70° (ENE) 18:28:43 437.470
KKS-1 26 Jun 18:27:57 18:32:25 71° 285° (WNW) 18:36:52 437.445
XW-2F 26 Jun 18:28:44 18:32:19 39° 74° (ENE) 18:35:54 145.980 - 146.000
XW-2D 26 Jun 18:33:22 18:37:06 50° 75° (ENE) 18:40:49 145.860 - 145.880
XW-2B 26 Jun 18:42:19 18:46:07 64° 76° (ENE) 18:49:55 145.730 - 145.750
LilacSat-2 26 Jun 18:42:55 18:46:46 71° 76° (ENE) 18:50:37 437.200
STARS 26 Jun 18:54:27 18:58:55 87° 283° (WNW) 19:03:20 437.465
XW-2C 26 Jun 18:57:49 19:01:40 76° 259° (W) 19:05:31 145.795 - 145.815
KAITUO 1B 26 Jun 19:09:09 19:12:55 71° 258° (WSW) 19:16:42 145.475/437.950
SRMSAT 26 Jun 19:25:15 19:28:21 14° 189° (S) 19:31:27 437.500
CUBESAT XI-V 26 Jun 19:25:41 19:27:25 12° 295° (WNW) 19:29:09 437.345
SEEDS 26 Jun 19:38:10 19:41:37 25° 71° (ENE) 19:45:02 437.485
DOVE 4 26 Jun 19:38:52 19:40:24 12° 269° (W) 19:41:58 437.250
NUDT-PHONESAT 26 Jun 19:43:56 19:47:02 24° 264° (W) 19:50:09 437.300
HO-68 26 Jun 19:53:31 20:00:42 78° 73° (ENE) 20:07:54 435.675
CUTE 1.7 + AOD 2 26 Jun 19:57:01 20:01:15 71° 76° (ENE) 20:05:29 437.475
CUTE-I 26 Jun 19:59:38 20:03:57 25° 264° (W) 20:08:19 437.470
AO-85 26 Jun 20:02:43 20:05:54 21° 112° (ESE) 20:08:58 145.980
XW-2F 26 Jun 20:05:22 20:06:35 11° 268° (W) 20:07:47 145.980 - 146.000
AO-73 26 Jun 20:10:14 20:12:40 14° 66° (ENE) 20:15:07 145.935
XW-2A 26 Jun 20:14:19 20:17:45 88° 78° (ENE) 20:21:13 145.665 - 145.685
CUBEBUG 2 26 Jun 20:20:21 20:24:52 64° 76° (ENE) 20:29:32 437.445
AAUSAT CUBESAT 2 26 Jun 20:25:01 20:28:51 39° 73° (ENE) 20:32:41 437.432
STRAND 1 26 Jun 20:25:48 20:30:42 43° 99° (E) 20:35:33 437.568
RS-15 26 Jun 20:27:47 20:38:42 42° 106° (ESE) 20:49:50 29.354- 29.394
Oscar 11 26 Jun 20:35:11 20:38:19 20° 69° (ENE) 20:41:27 .
NO-84 26 Jun 20:37:33 20:39:34 14° 120° (ESE) 20:41:40 435.350 FM
ZACube-1 26 Jun 20:43:58 20:48:09 37° 73° (ENE) 20:52:23 437.345
UWE-3 26 Jun 20:51:24 20:55:59 85° 75° (ENE) 21:00:39 435.000/436.395/437.385
BEESAT 3 26 Jun 20:55:54 20:59:42 49° 115° (ESE) 21:03:34 437.485
O/OREOS (USA 219) 26 Jun 21:00:57 21:03:57 17° 100° (E) 21:06:57 437.305
SEEDS 26 Jun 21:13:55 21:17:12 22° 265° (W) 21:20:29 437.485
PCSat 26 Jun 21:25:03 21:30:02 36° 57° (ENE) 21:35:00 145.827
DELFI C3 26 Jun 21:40:42 21:43:54 25° 71° (ENE) 21:47:08 145.870
AO-85 26 Jun 21:42:39 21:46:07 26° 306° (NW) 21:49:30 145.980
AO-73 26 Jun 21:44:02 21:48:25 49° 261° (W) 21:52:52 145.935
HO-68 26 Jun 21:44:47 21:49:00 16° 268° (W) 21:53:16 435.675
BEESAT 2 26 Jun 21:57:36 22:01:34 85° 117° (ESE) 22:05:36 435.950
CUBEBUG 2 26 Jun 22:01:19 22:01:53 10° 270° (W) 22:02:28 437.445
AAUSAT CUBESAT 2 26 Jun 22:02:25 22:04:27 13° 267° (W) 22:06:28 437.432
STRAND 1 26 Jun 22:05:50 22:09:31 20° 294° (WNW) 22:13:11 437.568
Oscar 11 26 Jun 22:10:21 22:14:12 31° 263° (W) 22:18:04 .
NO-84 26 Jun 22:12:54 22:16:38 53° 317° (NW) 22:20:41 435.350 FM
EO-88 26 Jun 22:19:41 22:23:15 50° 75° (ENE) 22:26:49 145.990 - 145.960
FO-29 26 Jun 22:21:07 22:28:09 35° 95° (E) 22:34:58 435.910
ZACube-1 26 Jun 22:21:28 22:24:31 18° 267° (W) 22:27:36 437.345
YUBILEINY 26 Jun 22:30:16 22:38:56 69° 92° (E) 22:47:42 435.215
BEESAT 3 26 Jun 22:35:23 22:37:32 14° 312° (NW) 22:39:43 437.485
O/OREOS (USA 219) 26 Jun 22:38:49 22:43:02 36° 295° (WNW) 22:47:13 437.305
RS-15 26 Jun 22:38:56 22:50:48 56° 307° (NW) 23:02:57 29.354- 29.394
TIGRISAT 26 Jun 22:40:56 22:44:39 24° 95° (E) 22:48:17 435.000
SO-50 26 Jun 23:00:37 23:04:17 24° 51° (NE) 23:07:57 436.795
ESTCUBE 1 26 Jun 23:06:38 23:09:24 16° 67° (ENE) 23:12:10 437.505/2401.250
PCSat 26 Jun 23:08:45 23:13:14 27° 253° (WSW) 23:17:42 145.827
DELFI C3 26 Jun 23:15:48 23:18:37 19° 265° (W) 23:21:27 145.870
M-CUBED/EXP-1 PRIME 26 Jun 23:17:26 23:21:16 78° 290° (WNW) 23:25:23 437.505
UNISAT 6 26 Jun 23:22:44 23:27:24 79° 101° (E) 23:31:55 437.425
PRISM 26 Jun 23:43:53 23:47:54 55° 285° (WNW) 23:51:56 437.425
NO-84 26 Jun 23:53:51 23:55:06 11° 336° (NNW) 23:56:22 435.350 FM
FO-29 27 Jun 00:05:45 00:13:08 46° 291° (WNW) 00:20:23 435.910
QB50P2 27 Jun 00:07:04 00:09:00 13° 92° (E) 00:10:57 145.880/145.840
LO-87 27 Jun 00:11:22 00:14:43 42° 261° (W) 00:18:08 145.935 - 145.965
TIGRISAT 27 Jun 00:17:19 00:21:16 28° 290° (WNW) 00:25:08 435.000
EO-79 27 Jun 00:29:50 00:33:11 22° 95° (E) 00:36:30 145.935-145.965
YUBILEINY 27 Jun 00:29:52 00:36:25 23° 291° (WNW) 00:43:03 435.215
VELOX 1 27 Jun 00:36:59 00:40:59 36° 72° (ENE) 00:44:59 145.980
SO-50 27 Jun 00:40:41 00:44:46 33° 247° (WSW) 00:48:51 436.795
ESTCUBE 1 27 Jun 00:41:35 00:45:50 41° 261° (W) 00:50:05 437.505/2401.250
DUCHIFAT 1 27 Jun 00:41:57 00:45:27 24° 96° (E) 00:48:54 145.980
SPROUT 27 Jun 00:46:51 00:50:58 51° 74° (ENE) 00:55:08 437.525
NANOSAT C BR1 27 Jun 00:50:57 00:54:52 35° 98° (E) 00:58:45 145.865
DX 1 27 Jun 00:53:09 00:55:59 17° 67° (ENE) 00:58:51 434.975-435.025
RS-15 27 Jun 00:58:45 01:06:59 20° 336° (NNW) 01:15:14 29.354- 29.394
UKube-1 27 Jun 01:07:23 01:10:06 17° 67° (ENE) 01:12:50 .
AIST 2D 27 Jun 01:07:49 01:11:07 39° 285° (WNW) 01:14:22 435.315
50 SAT 27 Jun 01:19:31 01:22:45 47° 75° (ENE) 01:26:01 437.505
POLYITAN 1 27 Jun 01:29:50 01:34:06 67° 284° (WNW) 01:38:18 437.675
QB50P2 27 Jun 01:40:55 01:44:59 44° 287° (WNW) 01:49:01 145.880/145.840
BUGSAT 1 27 Jun 01:45:42 01:49:40 38° 98° (E) 01:53:36 437.445
EO-79 27 Jun 02:05:19 02:08:51 26° 290° (WNW) 02:12:22 145.935-145.965
VELOX 1 27 Jun 02:14:43 02:17:30 17° 266° (W) 02:20:18 145.980
DUCHIFAT 1 27 Jun 02:17:36 02:20:59 23° 290° (WNW) 02:24:20 145.980
SPROUT 27 Jun 02:25:56 02:27:08 11° 268° (W) 02:28:19 437.525
NANOSAT C BR1 27 Jun 02:27:33 02:30:15 17° 293° (WNW) 02:32:57 145.865
DX 1 27 Jun 02:27:55 02:31:52 35° 261° (W) 02:35:50 434.975-435.025
Gurwin Techsat 1B 27 Jun 02:29:53 02:34:18 26° 96° (E) 02:38:41 435.225
UKube-1 27 Jun 02:41:51 02:45:48 36° 261° (W) 02:49:47 .
ITUPSAT 1 27 Jun 02:58:25 03:02:23 26° 69° (ENE) 03:06:23 437.325
Oscar 19 27 Jun 03:03:03 03:08:12 87° 284° (WNW) 03:13:19 437.125/150
BEESAT 27 Jun 03:07:01 03:11:16 33° 70° (ENE) 03:15:33 436.000
RS-15 27 Jun 03:19:53 03:26:45 16° 14° (NNE) 03:33:29 29.354- 29.394
BUGSAT 1 27 Jun 03:22:09 03:24:40 15° 293° (WNW) 03:27:09 437.445
AO-7 27 Jun 03:24:02 03:28:20 15° 92° (E) 03:32:35 .
ITAMSAT 1 27 Jun 03:45:32 03:48:39 16° 93° (E) 03:51:44 435.822/435.867
MOZHAYETS 4 27 Jun 04:00:42 04:05:19 78° 77° (ENE) 04:09:58
Gurwin Techsat 1B 27 Jun 04:09:28 04:14:13 34° 290° (WNW) 04:18:56 435.225
ITUPSAT 1 27 Jun 04:35:59 04:40:05 28° 263° (W) 04:44:13 437.325
AO-85 27 Jun 04:38:11 04:38:22 10° 46° (NE) 04:38:32 145.980
BEESAT 27 Jun 04:45:22 04:49:03 22° 265° (W) 04:52:45 436.000
CUBESAT XI-V 27 Jun 04:46:17 04:50:37 41° 73° (ENE) 04:54:57 437.345
NO-84 27 Jun 04:49:06 04:53:01 31° 38° (NE) 04:56:51 435.350 FM
AO-7 27 Jun 05:13:33 05:21:59 88° 107° (ESE) 05:30:22 .
BEESAT 3 27 Jun 05:16:37 05:18:36 13° 48° (NE) 05:20:34 437.485
KKS-1 27 Jun 05:22:41 05:27:05 73° 75° (ENE) 05:31:31 437.445
ITAMSAT 1 27 Jun 05:23:16 05:28:23 53° 287° (WNW) 05:33:26 435.822/435.867
RS-15 27 Jun 05:32:52 05:44:08 41° 46° (NE) 05:54:50 29.354- 29.394
STARS 27 Jun 05:47:48 05:52:04 55° 74° (ENE) 05:56:23 437.465
DOVE 4 27 Jun 06:00:03 06:03:31 18° 94° (E) 06:07:04 437.250
AO-85 27 Jun 06:15:00 06:19:12 82° 240° (WSW) 06:23:41 145.980
BEESAT 2 27 Jun 06:18:32 06:21:38 21° 51° (NE) 06:24:42 435.950
CUBESAT XI-V 27 Jun 06:25:13 06:28:07 16° 267° (W) 06:31:01 437.345
NO-84 27 Jun 06:26:42 06:30:36 33° 235° (SW) 06:34:21 435.350 FM
XW-2C 27 Jun 06:34:52 06:36:42 13° 93° (E) 06:38:30 145.795 - 145.815
CUTE-I 27 Jun 06:39:53 06:43:26 18° 93° (E) 06:46:57 437.470
KAITUO 1B 27 Jun 06:44:46 06:46:33 13° 93° (E) 06:48:18 145.475/437.950
BEESAT 3 27 Jun 06:52:35 06:56:29 52° 244° (WSW) 07:00:18 437.485
AO-7 27 Jun 07:08:13 07:13:39 19° 305° (NW) 07:19:06 .
O/OREOS (USA 219) 27 Jun 07:12:52 07:16:18 21° 61° (ENE) 07:19:44 437.305
NUDT-PHONESAT 27 Jun 07:16:35 07:19:58 34° 98° (E) 07:23:19 437.300
HO-68 27 Jun 07:26:39 07:30:51 16° 92° (E) 07:35:01 435.675
STARS 27 Jun 07:27:41 07:28:42 11° 268° (W) 07:29:43 437.465
DOVE 4 27 Jun 07:36:33 07:41:17 45° 287° (WNW) 07:46:13 437.250
XW-2F 27 Jun 07:37:22 07:41:08 89° 259° (WSW) 07:44:50 145.980 - 146.000
STRAND 1 27 Jun 07:38:39 07:43:31 45° 72° (ENE) 07:48:26 437.568
XW-2D 27 Jun 07:42:39 07:46:23 69° 283° (WNW) 07:50:05 145.860 - 145.880
RS-15 27 Jun 07:45:25 07:57:05 60° 249° (WSW) 08:08:09 29.354- 29.394
CUTE 1.7 + AOD 2 27 Jun 07:46:09 07:48:32 15° 93° (E) 07:50:54 437.475
XW-2B 27 Jun 07:51:45 07:55:25 53° 285° (WNW) 07:59:04 145.730 - 145.750
LilacSat-2 27 Jun 07:53:12 07:56:50 47° 285° (WNW) 08:00:27 437.200
Tancredo 1 27 Jun 07:54:27 07:57:28 80° 321° (NW) 08:00:29 437.200
BEESAT 2 27 Jun 07:55:50 07:59:23 30° 247° (WSW) 08:02:55 435.950
XW-2C 27 Jun 08:07:35 08:10:58 32° 287° (WNW) 08:14:18 145.795 - 145.815
CUBEBUG 2 27 Jun 08:15:19 08:18:27 18° 93° (E) 08:21:32 437.445
KAITUO 1B 27 Jun 08:17:19 08:20:37 31° 287° (WNW) 08:23:53 145.475/437.950
CUTE-I 27 Jun 08:18:31 08:23:42 50° 288° (WNW) 08:28:51 437.470
ISS 27 Jun 08:34:37 08:37:51 68° 319° (NW) 08:41:08 437.550
YUBILEINY 27 Jun 08:44:53 08:52:18 29° 72° (ENE) 08:59:37 435.215
UWE-3 27 Jun 08:44:54 08:48:23 22° 94° (E) 08:51:47 435.000/436.395/437.385
O/OREOS (USA 219) 27 Jun 08:51:48 08:55:42 30° 257° (WSW) 08:59:35 437.305
NUDT-PHONESAT 27 Jun 08:51:54 08:53:30 13° 292° (WNW) 08:55:07 437.300
SEEDS 27 Jun 08:59:20 09:03:29 73° 101° (ESE) 09:07:38 437.485
XW-2A 27 Jun 09:11:33 09:14:53 54° 284° (WNW) 09:18:10 145.665 - 145.685
HO-68 27 Jun 09:12:00 09:19:11 78° 287° (WNW) 09:26:18 435.675
STRAND 1 27 Jun 09:19:26 09:22:53 18° 266° (W) 09:26:20 437.568
CUTE 1.7 + AOD 2 27 Jun 09:20:36 09:24:28 37° 287° (WNW) 09:28:19 437.475
Tancredo 1 27 Jun 09:32:38 09:33:28 11° 335° (NNW) 09:34:17 437.200
AO-73 27 Jun 09:35:05 09:39:12 38° 97° (E) 09:43:12 145.935
TIGRISAT 27 Jun 09:37:23 09:40:09 16° 66° (ENE) 09:42:54 435.000
AAUSAT CUBESAT 2 27 Jun 09:44:48 09:48:53 71° 283° (WNW) 09:52:58 437.432
CUBEBUG 2 27 Jun 09:50:51 09:55:10 38° 288° (WNW) 09:59:22 437.445
Oscar 11 27 Jun 09:59:49 10:04:03 57° 100° (E) 10:08:16 .
M-CUBED/EXP-1 PRIME 27 Jun 10:01:17 10:04:35 76° 71° (ENE) 10:07:50 437.505
ZACube-1 27 Jun 10:11:04 10:15:29 68° 284° (WNW) 10:19:45 437.345
ISS 27 Jun 10:13:47 10:14:52 11° 337° (NNW) 10:15:57 437.550
FO-29 27 Jun 10:13:57 10:19:52 64° 73° (ENE) 10:26:38 435.910
UNISAT 6 27 Jun 10:18:07 10:22:31 47° 73° (ENE) 10:27:00 437.425
UWE-3 27 Jun 10:20:52 10:24:48 29° 289° (WNW) 10:28:38 435.000/436.395/437.385
PRISM 27 Jun 10:29:48 10:33:48 66° 75° (ENE) 10:37:49 437.425
YUBILEINY 27 Jun 10:40:56 10:49:26 55° 270° (W) 10:57:52 435.215
DELFI C3 27 Jun 10:54:10 10:58:05 62° 101° (E) 11:01:59 145.870
HO-68 27 Jun 11:02:47 11:05:42 13° 305° (NW) 11:08:39 435.675
TIGRISAT 27 Jun 11:11:59 11:16:22 46° 261° (W) 11:20:52 435.000
AO-73 27 Jun 11:12:21 11:15:04 16° 293° (WNW) 11:17:44 145.935
EO-79 27 Jun 11:20:57 11:22:37 12° 65° (ENE) 11:24:18 145.935-145.965
EO-88 27 Jun 11:24:37 11:28:16 78° 281° (W) 11:31:52 145.990 - 145.960
DUCHIFAT 1 27 Jun 11:32:13 11:34:11 13° 66° (ENE) 11:36:10 145.980
Oscar 11 27 Jun 11:38:31 11:39:38 11° 295° (WNW) 11:40:45 .
AIST 2D 27 Jun 11:38:50 11:42:09 38° 74° (ENE) 11:45:28 435.315
NANOSAT C BR1 27 Jun 11:40:44 11:43:42 19° 68° (ENE) 11:46:40 145.865
LO-87 27 Jun 11:41:45 11:44:13 17° 95° (E) 11:46:39 145.935 - 145.965
UNISAT 6 27 Jun 11:56:57 11:59:26 14° 268° (W) 12:01:57 437.425
FO-29 27 Jun 12:01:45 12:05:36 17° 272° (W) 12:09:45 435.910
PCSat 27 Jun 12:03:15 12:08:34 60° 113° (ESE) 12:13:55 145.827
POLYITAN 1 27 Jun 12:18:56 12:23:07 59° 75° (ENE) 12:27:21 437.675
QB50P2 27 Jun 12:29:50 12:34:04 89° 86° (E) 12:38:23 145.880/145.840
BUGSAT 1 27 Jun 12:33:09 12:36:02 19° 68° (ENE) 12:38:57 437.445
ESTCUBE 1 27 Jun 12:36:34 12:40:56 49° 100° (E) 12:45:16 437.505/2401.250
SPROUT 27 Jun 12:37:54 12:38:59 11° 92° (E) 12:40:05 437.525
Oscar 19 27 Jun 12:42:07 12:43:23 11° 62° (ENE) 12:44:40 437.125/150
EO-79 27 Jun 12:53:45 12:57:53 51° 260° (W) 13:02:03 145.935-145.965
DUCHIFAT 1 27 Jun 13:05:21 13:09:24 46° 261° (W) 13:13:30 145.980
SO-50 27 Jun 13:13:45 13:16:00 14° 108° (ESE) 13:18:15 436.795
LO-87 27 Jun 13:14:38 13:17:34 23° 289° (WNW) 13:20:31 145.935 - 145.965
NANOSAT C BR1 27 Jun 13:15:22 13:19:08 31° 263° (W) 13:22:57 145.865
JUGNU 27 Jun 13:46:06 13:49:36 16° 174° (S) 13:53:07 437.505
Gurwin Techsat 1B 27 Jun 13:48:03 13:52:41 32° 69° (ENE) 13:57:21 435.225
PCSat 27 Jun 13:48:37 13:52:21 19° 310° (NW) 13:56:06 145.827
VELOX 1 27 Jun 14:05:31 14:09:57 72° 283° (WNW) 14:14:22 145.980
BUGSAT 1 27 Jun 14:07:30 14:11:08 30° 263° (W) 14:14:50 437.445
SPROUT 27 Jun 14:10:58 14:15:09 53° 286° (WNW) 14:19:19 437.525
ESTCUBE 1 27 Jun 14:15:03 14:17:16 14° 294° (WNW) 14:19:29 437.505/2401.250
Oscar 19 27 Jun 14:16:48 14:21:58 82° 257° (WSW) 14:27:08 437.125/150
50 SAT 27 Jun 14:17:01 14:20:26 78° 101° (E) 14:23:51 437.505
DX 1 27 Jun 14:18:26 14:22:38 46° 100° (E) 14:26:51 434.975-435.025
AO-7 27 Jun 14:20:15 14:25:33 19° 54° (NE) 14:30:52 .
Tancredo 1 27 Jun 14:21:12 14:23:50 26° 34° (NE) 14:26:29 437.200
UKube-1 27 Jun 14:31:17 14:35:24 42° 99° (E) 14:39:30 .
SO-50 27 Jun 14:51:31 14:55:59 53° 302° (WNW) 15:00:26 436.795
ITAMSAT 1 27 Jun 15:00:39 15:04:15 19° 65° (ENE) 15:07:52 435.822/435.867
ISS 27 Jun 15:04:54 15:07:59 35° 36° (NE) 15:11:03 437.550
Gurwin Techsat 1B 27 Jun 15:28:05 15:32:34 28° 264° (W) 15:37:05 435.225
JUGNU 27 Jun 15:34:18 15:37:52 16° 185° (S) 15:41:26 437.505
SRMSAT 27 Jun 15:35:44 15:38:32 13° 170° (S) 15:41:20 437.500
DX 1 27 Jun 15:56:09 15:58:24 14° 294° (WNW) 16:00:38 434.975-435.025
Tancredo 1 27 Jun 15:56:54 15:59:18 21° 230° (SW) 16:01:42 437.200
MOZHAYETS 4 27 Jun 15:59:22 16:02:55 22° 95° (E) 16:06:27
UKube-1 27 Jun 16:08:38 16:11:01 15° 294° (WNW) 16:13:26 .
AO-7 27 Jun 16:08:52 16:17:12 89° 255° (WSW) 16:25:36 .
ITAMSAT 1 27 Jun 16:38:20 16:43:19 46° 260° (W) 16:48:20 435.822/435.867
ITUPSAT 1 27 Jun 16:38:27 16:43:16 88° 284° (WNW) 16:48:01 437.325
ISS 27 Jun 16:41:56 16:44:16 18° 231° (SW) 16:46:37 437.550
BEESAT 27 Jun 16:46:59 16:51:45 69° 284° (WNW) 16:56:27 436.000
CUBESAT XI-V 27 Jun 16:47:28 16:49:24 12° 92° (E) 16:51:19 437.345
DOVE 4 27 Jun 17:05:44 17:06:16 10° 64° (ENE) 17:06:49 437.250
KKS-1 27 Jun 17:17:31 17:20:30 17° 94° (E) 17:23:28 437.445
SRMSAT 27 Jun 17:23:13 17:26:56 17° 180° (S) 17:30:39 437.500
JUGNU 27 Jun 17:25:14 17:26:06 10° 195° (SSW) 17:26:58 437.505
MOZHAYETS 4 27 Jun 17:36:05 17:40:03 29° 289° (WNW) 17:43:58
STARS 27 Jun 17:41:50 17:43:47 13° 93° (E) 17:45:43 437.465
